LKLB Weather Reports


time (UTC)temp
C
wind
direction
speed
KPH
gust
KPH
rain 1hr
cm
rain 24hr
cm
rain mn
cm
humidity
%
barometer
mb
20260507201911 7 310 8.0 0.0 0.00 0.00 0.00 93
20260507192024 7 300 11.3 0.0 0.00 0.00 0.00 99
20260507181909 7 330 3.2 0.0 0.00 0.00 0.00 99
20260507171910 8 310 8.0 0.0 0.00 0.00 0.00 93
20260507162211 8 290 14.5 0.0 0.00 0.00 0.00 99
20260507151909 10 290 14.5 0.0 0.00 0.00 0.00 93
20260507141910 10 290 14.5 0.0 0.00 0.00 0.00 99
20260507132024 11 290 14.5 0.0 0.00 0.00 0.00 93
20260507121909 11 300 8.0 0.0 0.00 0.00 0.00 93
20260507111910 10 290 8.0 0.0 0.00 0.00 0.00 99
20260507102109 10 300 8.0 0.0 0.00 0.00 0.00 99
20260507091910 10 310 3.2 0.0 0.00 0.00 0.00 93
20260507081909 11 300 8.0 0.0 0.00 0.00 0.00 87
20260507071909 10 320 3.2 0.0 0.00 0.00 0.00 93
20260507061909 10 290 8.0 0.0 0.00 0.00 0.00 93
20260507051909 8 300 3.2 0.0 0.00 0.00 0.00 99
20260507042113 10 300 11.3 0.0 0.00 0.00 0.00 93
20260507031909 10 290 14.5 0.0 0.00 0.00 0.00 99
20260507021909 11 280 3.2 0.0 0.00 0.00 0.00 93
20260507012018 12 350 3.2 0.0 0.00 0.00 0.00 93
20260507001909 12 310 3.2 0.0 0.00 0.00 0.00 93
20260506231909 12 0 0.0 0.0 0.00 0.00 0.00 93
20260506222108 12 270 11.3 0.0 0.00 0.00 0.00 87
20260506211909 12 310 8.0 0.0 0.00 0.00 0.00 87